DW8824 Weather Reports


Display with metric or nautical units.
time (UTC)temp
F
wind
direction
speed
MPH
gust
MPH
rain 1hr
in
rain 24hr
in
rain mn
in
humidity
%
barometer
mb
20260904141406 74 132 2.0 8.0 0.00 0.02 0.02 78 1021.0
20260904140906 73 88 2.0 10.0 0.00 0.02 0.02 77 1020.9
20260904140405 73 83 3.0 8.0 0.00 0.02 0.02 77 1020.8
20260904135905 74 99 2.0 9.0 0.00 0.02 0.02 77 1020.7
20260904135405 74 75 3.0 9.0 0.00 0.02 0.02 77 1020.6
20260904134905 74 74 4.0 10.0 0.00 0.02 0.02 77 1020.7
20260904134406 74 103 2.0 12.0 0.00 0.02 0.02 76 1020.6
20260904133906 74 83 5.0 10.0 0.00 0.02 0.02 75 1020.6
20260904133405 74 84 6.0 12.0 0.00 0.02 0.02 75 1020.6
20260904132906 74 67 5.0 13.0 0.00 0.02 0.02 75 1020.5
20260904131905 75 77 7.0 13.0 0.00 0.02 0.02 75 1020.4
20260904131405 75 73 5.0 13.0 0.00 0.02 0.02 74 1020.4
20260904130906 75 73 6.0 14.0 0.00 0.02 0.02 73 1020.4
20260904130405 75 89 7.0 13.0 0.00 0.02 0.02 72 1020.4
20260904125905 75 77 7.0 14.0 0.00 0.02 0.02 71 1020.4
20260904125405 75 85 6.0 12.0 0.00 0.02 0.02 73 1020.3
20260904124905 75 78 2.0 10.0 0.00 0.02 0.02 74 1020.3
20260904124406 75 82 5.0 13.0 0.00 0.02 0.02 74 1020.3
20260904123905 76 72 5.0 12.0 0.00 0.02 0.02 74 1020.3
20260904123406 75 95 7.0 12.0 0.00 0.02 0.02 73 1020.2
20260904122905 75 73 9.0 15.0 0.00 0.02 0.02 73 1020.2
20260904122405 76 51 6.0 12.0 0.00 0.02 0.02 73 1020.1
20260904121905 76 76 6.0 14.0 0.00 0.02 0.02 72 1020.1
20260904121405 76 74 6.0 12.0 0.00 0.02 0.02 73 1020.1
20260904120905 75 102 7.0 12.0 0.00 0.02 0.02 73 1020.1
20260904120406 76 75 7.0 15.0 0.00 0.02 0.02 72 1020.0
20260904115905 76 81 9.0 15.0 0.00 0.02 0.02 72 1020.1
20260904115405 76 91 5.0 12.0 0.00 0.02 0.02 72 1020.2
20260904114405 76 63 9.0 16.0 0.00 0.02 0.02 72 1020.1
20260904113905 76 57 10.0 17.0 0.00 0.02 0.02 71 1020.2
20260904113406 76 95 6.0 18.0 0.00 0.02 0.02 71 1020.2
20260904112906 76 50 8.0 15.0 0.00 0.02 0.02 71 1020.3
20260904112405 76 76 8.0 14.0 0.00 0.02 0.02 71 1020.4
20260904111905 76 61 6.0 12.0 0.00 0.02 0.02 73 1020.4
20260904111405 76 71 6.0 12.0 0.00 0.02 0.02 73 1020.4
20260904110905 76 76 7.0 14.0 0.00 0.02 0.02 74 1020.4
20260904105905 76 69 7.0 14.0 0.00 0.02 0.02 73 1020.5
20260904105406 76 83 8.0 14.0 0.00 0.02 0.02 73 1020.4
20260904104906 76 54 7.0 18.0 0.00 0.02 0.02 72 1020.5
20260904104405 76 108 7.0 16.0 0.00 0.02 0.02 73 1020.5
20260904103405 76 90 9.0 16.0 0.00 0.02 0.02 73 1020.5
20260904102905 76 96 9.0 16.0 0.00 0.02 0.02 75 1020.6
20260904102405 75 100 8.0 18.0 0.00 0.02 0.02 77 1020.7
20260904101406 75 66 7.0 16.0 0.00 0.02 0.02 77 1020.8
20260904100906 76 87 7.0 14.0 0.00 0.02 0.02 73 1020.8
20260904100405 76 65 7.0 18.0 0.00 0.02 0.02 72 1020.7
20260904095906 76 128 7.0 14.0 0.00 0.02 0.02 73 1020.9
20260904095406 76 81 9.0 18.0 0.00 0.02 0.02 71 1020.9
20260904094905 76 114 7.0 17.0 0.00 0.02 0.02 73 1021.0
20260904094406 76 85 9.0 20.0 0.00 0.02 0.02 73 1021.0
20260904093406 77 112 7.0 20.0 0.00 0.02 0.02 73 1021.1
20260904092905 77 87 6.0 12.0 0.00 0.02 0.02 73 1021.1
20260904092405 77 79 6.0 16.0 0.00 0.02 0.02 74 1021.1
20260904091906 77 98 7.0 16.0 0.00 0.02 0.02 75 1021.2
20260904091406 76 91 10.0 17.0 0.00 0.02 0.02 74 1021.2
20260904090905 76 83 7.0 14.0 0.00 0.02 0.02 75 1021.3
20260904090405 76 85 11.0 21.0 0.00 0.02 0.02 74 1021.3
20260904085905 76 110 7.0 15.0 0.00 0.02 0.02 75 1021.3
20260904085405 76 80 7.0 17.0 0.00 0.02 0.02 75 1021.3
20260904084905 76 76 10.0 16.0 0.00 0.02 0.02 75 1021.3
20260904084405 76 88 10.0 18.0 0.00 0.02 0.02 74 1021.4
20260904083406 76 92 7.0 14.0 0.00 0.02 0.02 76 1021.5
20260904081905 76 107 7.0 15.0 0.00 0.02 0.02 77 1021.6
20260904081406 76 133 9.0 16.0 0.00 0.02 0.02 76 1021.7
20260904080906 77 121 10.0 20.0 0.00 0.02 0.02 75 1021.7
20260904080405 76 56 10.0 18.0 0.00 0.02 0.02 75 1021.7
20260904075905 76 57 6.0 14.0 0.00 0.02 0.02 78 1021.9
20260904075405 75 86 8.0 14.0 0.00 0.02 0.02 79 1021.9
20260904074905 74 68 9.0 13.0 0.00 0.02 0.02 81 1022.1
20260904074405 73 82 5.0 15.0 0.00 0.02 0.02 83 1022.2
20260904073405 73 83 6.0 12.0 0.00 0.02 0.02 82 1022.3
20260904072905 73 85 9.0 15.0 0.00 0.02 0.02 81 1022.5
20260904072405 74 62 9.0 18.0 0.00 0.03 0.02 80 1022.5
20260904070905 75 77 9.0 18.0 0.00 0.20 0.02 74 1022.5
20260904070405 75 73 10.0 18.0 0.00 0.32 0.02 75 1022.5
20260904065905 74 71 7.0 14.0 0.00 0.32 0.02 78 1022.6
20260904065406 75 97 10.0 21.0 0.00 0.32 0.02 74 1022.6
20260904064405 76 76 7.0 18.0 0.02 0.32 0.02 75 1022.6
20260904063905 76 81 8.0 14.0 0.02 0.32 0.02 75 1022.7
20260904063406 75 83 9.0 15.0 0.02 0.32 0.02 77 1022.7
20260904062905 75 113 7.0 14.0 0.02 0.32 0.02 78 1022.7
20260904062405 75 80 8.0 20.0 0.02 0.32 0.02 78 1022.8
20260904061905 75 105 8.0 16.0 0.02 0.32 0.02 79 1023.0
20260904060906 73 74 8.0 17.0 0.02 0.32 0.02 83 1023.1
20260904060406 72 80 7.0 14.0 0.02 0.32 0.02 85 1023.1
20260904055905 72 76 7.0 15.0 0.02 0.32 0.02 85 1023.1
20260904055406 72 76 9.0 15.0 0.02 0.32 0.02 84 1023.0
20260904054905 73 77 9.0 16.0 0.00 0.31 0.00 84 1023.0
20260904054406 73 74 7.0 14.0 0.00 0.31 0.00 83 1022.9
20260904053905 74 76 8.0 18.0 0.00 0.31 0.00 82 1023.0
20260904053405 75 81 8.0 12.0 0.00 0.31 0.00 80 1023.0
20260904052905 75 75 8.0 16.0 0.00 0.31 0.00 80 1022.9
20260904052406 74 77 9.0 15.0 0.00 0.31 0.00 81 1022.9
20260904051905 74 63 10.0 17.0 0.00 0.31 0.00 82 1023.0
20260904051406 73 59 7.0 16.0 0.00 0.31 0.00 82 1022.9
20260904050905 74 74 9.0 16.0 0.00 0.31 0.00 80 1023.0
20260904050406 75 74 7.0 14.0 0.00 0.31 0.00 77 1022.9
20260904045905 76 67 9.0 22.0 0.00 0.31 0.00 75 1022.9
20260904045405 75 91 10.0 20.0 0.00 0.31 0.00 74 1022.9
20260904044405 74 85 7.0 15.0 0.00 0.31 0.00 76 1022.8
20260904042905 74 91 5.0 16.0 0.00 0.31 0.00 75 1022.8
20260904042405 75 91 9.0 18.0 0.00 0.31 0.00 74 1022.8
20260904041905 75 125 7.0 14.0 0.00 0.31 0.00 74 1022.8
20260904040905 74 93 10.0 18.0 0.00 0.32 0.00 78 1022.6
20260904040405 74 81 6.0 17.0 0.00 0.32 0.00 78 1022.6
20260904035405 74 87 9.0 16.0 0.00 0.32 0.00 78 1022.5
20260904034905 74 89 6.0 13.0 0.00 0.32 0.00 78 1022.5
20260904034405 73 83 7.0 16.0 0.00 0.32 0.00 77 1022.5
20260904033906 74 83 6.0 15.0 0.00 0.32 0.00 76 1022.4
20260904033405 73 74 9.0 14.0 0.00 0.32 0.00 76 1022.5
20260904032905 73 91 7.0 12.0 0.00 0.32 0.00 79 1022.4
20260904032405 73 90 3.0 9.0 0.00 0.32 0.00 81 1022.3
20260904031906 72 111 4.0 10.0 0.00 0.32 0.00 81 1022.3
20260904031405 72 113 5.0 12.0 0.00 0.32 0.00 81 1022.3
20260904030905 73 92 5.0 15.0 0.00 0.32 0.00 81 1022.2
20260904030405 72 76 6.0 12.0 0.00 0.32 0.00 81 1022.1
20260904025905 72 50 3.0 12.0 0.00 0.32 0.00 83 1022.1
20260904025406 72 68 5.0 12.0 0.00 0.32 0.00 83 1022.0
20260904024905 71 75 4.0 9.0 0.00 0.32 0.00 82 1021.9
20260904024406 70 83 5.0 10.0 0.00 0.33 0.00 84 1021.9
20260904023905 70 94 4.0 9.0 0.00 0.33 0.00 86 1021.8
20260904023406 70 86 1.0 6.0 0.00 0.33 0.00 86 1021.9
20260904022405 70 80 3.0 8.0 0.00 0.35 0.00 85 1021.9
20260904021405 70 89 5.0 12.0 0.00 0.35 0.00 85 1021.8
20260904020905 70 110 4.0 8.0 0.00 0.35 0.00 85 1021.7
20260904020405 69 100 5.0 10.0 0.00 0.35 0.00 85 1021.7
20260904015906 69 105 5.0 14.0 0.00 0.35 0.00 85 1021.7
20260904015406 69 129 7.0 13.0 0.00 0.35 0.00 86 1021.7
20260904014906 69 108 3.0 10.0 0.00 0.35 0.00 87 1021.6
20260904013906 69 136 2.0 5.0 0.00 0.35 0.00 87 1021.5
20260904013405 69 155 0.0 3.0 0.00 0.35 0.00 86 1021.5
20260904012905 69 155 0.0 2.0 0.00 0.35 0.00 86 1021.5
20260904012405 69 155 1.0 6.0 0.00 0.35 0.00 86 1021.4
20260904011406 69 174 2.0 6.0 0.00 0.35 0.00 85 1021.4
20260904010905 69 198 3.0 6.0 0.00 0.35 0.00 84 1021.4
20260904010405 70 193 2.0 7.0 0.00 0.35 0.00 83 1021.3
20260904005905 70 153 3.0 8.0 0.00 0.35 0.00 83 1021.3
20260904005405 71 147 3.0 7.0 0.00 0.35 0.00 83 1021.3
20260904004905 71 28 4.0 9.0 0.00 0.35 0.00 83 1021.3
20260904004406 71 126 4.0 8.0 0.00 0.35 0.00 82 1021.5
20260904003905 71 110 3.0 7.0 0.00 0.35 0.00 82 1021.4
20260904003405 71 108 6.0 9.0 0.00 0.35 0.00 82 1021.3
20260904002905 71 110 5.0 9.0 0.00 0.35 0.00 82 1021.4
20260904002405 71 99 5.0 12.0 0.00 0.35 0.00 82 1021.4
20260904001905 71 101 3.0 9.0 0.00 0.35 0.00 82 1021.4
20260904001405 71 123 2.0 8.0 0.00 0.35 0.00 81 1021.3
20260904000905 71 82 3.0 10.0 0.00 0.35 0.00 81 1021.4
20260904000405 70 98 3.0 8.0 0.00 0.35 0.00 82 1021.4
20260903235905 71 121 4.0 9.0 0.00 0.35 0.00 82 1021.4
20260903234905 71 109 2.0 8.0 0.00 0.35 0.00 82 1021.4
20260903233905 71 94 7.0 12.0 0.00 0.35 0.00 81 1021.5
20260903233405 71 97 5.0 10.0 0.00 0.35 0.00 81 1021.5
20260903232905 71 84 3.0 9.0 0.00 0.35 0.00 81 1021.4
20260903232405 71 113 3.0 12.0 0.00 0.35 0.00 82 1021.4
20260903231905 71 90 4.0 12.0 0.00 0.35 0.00 82 1021.5
20260903231405 70 111 5.0 10.0 0.00 0.35 0.00 82 1021.5
20260903230405 70 110 3.0 7.0 0.00 0.35 0.00 83 1021.6
20260903225405 70 114 4.0 9.0 0.00 0.35 0.00 83 1021.6
20260903224905 70 87 3.0 7.0 0.00 0.35 0.00 83 1021.7
20260903224405 70 117 3.0 6.0 0.00 0.35 0.00 83 1021.7
20260903223905 70 95 2.0 9.0 0.00 0.35 0.00 84 1021.7
20260903222905 70 112 3.0 7.0 0.00 0.35 0.00 84 1021.8
20260903222405 70 80 2.0 10.0 0.00 0.35 0.00 84 1021.7
20260903221905 70 131 2.0 7.0 0.00 0.35 0.00 84 1021.8
20260903221408 70 70 3.0 9.0 0.00 0.35 0.00 84 1021.9
20260903220905 70 120 5.0 9.0 0.00 0.35 0.00 84 1021.8
20260903220405 70 78 5.0 12.0 0.00 0.35 0.00 85 1021.8
20260903215905 70 99 3.0 8.0 0.00 0.35 0.00 84 1021.9
20260903215405 70 103 3.0 8.0 0.00 0.35 0.00 83 1021.9
20260903214905 70 108 4.0 12.0 0.00 0.35 0.00 82 1021.9
20260903213905 72 119 9.0 15.0 0.00 0.35 0.00 76 1022.2
20260903213405 72 106 5.0 12.0 0.00 0.35 0.00 78 1022.0
20260903212906 72 94 3.0 12.0 0.00 0.35 0.00 79 1022.1
20260903212404 72 85 6.0 10.0 0.00 0.35 0.00 79 1022.1
20260903211905 72 79 6.0 15.0 0.00 0.35 0.00 79 1022.1
20260903211406 72 110 5.0 10.0 0.00 0.35 0.00 79 1022.2
20260903210405 72 113 3.0 9.0 0.00 0.35 0.00 78 1022.3
20260903205905 72 86 5.0 12.0 0.00 0.35 0.00 78 1022.3
20260903205405 72 83 5.0 12.0 0.00 0.35 0.00 78 1022.4
20260903204905 72 99 4.0 12.0 0.00 0.35 0.00 79 1022.5
20260903204405 72 114 7.0 18.0 0.00 0.35 0.00 79 1022.5
20260903203905 72 96 6.0 13.0 0.00 0.35 0.00 79 1022.6
20260903203406 72 107 3.0 12.0 0.00 0.35 0.00 79 1022.7
20260903202905 72 89 3.0 8.0 0.00 0.35 0.00 78 1022.7
20260903202406 72 103 4.0 12.0 0.00 0.35 0.00 77 1022.9
20260903201905 72 88 5.0 9.0 0.00 0.35 0.00 76 1022.8
20260903201405 73 106 5.0 12.0 0.00 0.35 0.00 77 1022.9
20260903200905 73 95 5.0 10.0 0.00 0.35 0.00 76 1022.9
20260903200405 73 97 7.0 15.0 0.00 0.35 0.00 77 1023.0
20260903195905 73 91 7.0 12.0 0.00 0.35 0.35 77 1023.0
20260903195405 73 95 6.0 10.0 0.00 0.35 0.35 76 1023.0
20260903194905 72 88 4.0 12.0 0.00 0.35 0.35 76 1023.1
20260903194405 72 99 2.0 7.0 0.00 0.35 0.35 76 1023.1
20260903193905 73 79 4.0 12.0 0.00 0.35 0.35 76 1023.0
20260903192905 73 88 5.0 13.0 0.00 0.35 0.35 76 1023.1
20260903192405 73 93 6.0 12.0 0.00 0.35 0.35 76 1023.1
20260903191905 73 120 6.0 12.0 0.00 0.35 0.35 76 1023.1
20260903191405 73 93 6.0 13.0 0.00 0.35 0.35 76 1023.1
20260903190905 73 104 3.0 12.0 0.00 0.35 0.35 77 1023.1
20260903185405 73 97 4.0 10.0 0.00 0.35 0.35 77 1022.9
20260903184905 73 108 5.0 12.0 0.00 0.35 0.35 76 1022.9
20260903184405 73 87 6.0 12.0 0.00 0.35 0.35 77 1022.8
20260903183905 73 86 7.0 12.0 0.00 0.35 0.35 77 1022.8
20260903183405 73 89 4.0 14.0 0.00 0.35 0.35 77 1022.8
20260903182405 73 106 6.0 12.0 0.00 0.35 0.35 77 1022.7
20260903181905 73 85 4.0 16.0 0.00 0.35 0.35 77 1022.7
20260903181405 73 95 4.0 15.0 0.00 0.35 0.35 77 1022.7
20260903180905 73 100 6.0 14.0 0.00 0.35 0.35 77 1022.6
20260903180405 73 84 6.0 14.0 0.00 0.38 0.35 78 1022.6
20260903175905 73 66 7.0 12.0 0.00 0.39 0.35 77 1022.7
20260903175405 73 95 5.0 18.0 0.00 0.39 0.35 77 1022.6
20260903174905 73 135 6.0 13.0 0.00 0.39 0.35 78 1022.6
20260903174406 73 98 4.0 12.0 0.00 0.39 0.35 78 1022.6
20260903173405 73 89 6.0 12.0 0.00 0.41 0.35 79 1022.6
20260903172405 72 92 5.0 9.0 0.00 0.45 0.35 79 1022.7
20260903170904 73 91 4.0 12.0 0.00 0.46 0.35 78 1022.7
20260903170405 73 86 5.0 10.0 0.00 0.46 0.35 78 1022.8
20260903165905 72 78 6.0 15.0 0.00 0.47 0.35 78 1022.8
20260903165405 72 83 4.0 8.0 0.00 0.49 0.35 77 1022.8
20260903164905 72 101 6.0 10.0 0.00 0.50 0.35 77 1022.7
20260903164405 72 74 5.0 12.0 0.00 0.52 0.35 77 1022.7
20260903163905 72 101 5.0 12.0 0.00 0.54 0.35 78 1022.7
20260903163405 72 114 2.0 9.0 0.00 0.56 0.35 78 1022.7
20260903162905 72 95 2.0 12.0 0.00 0.63 0.35 78 1022.6
20260903162404 72 103 4.0 10.0 0.00 0.63 0.35 78 1022.6
20260903161906 72 81 5.0 9.0 0.00 0.63 0.35 77 1022.5
20260903161405 72 86 5.0 10.0 0.00 0.63 0.35 77 1022.5
20260903160905 73 104 3.0 9.0 0.00 0.63 0.35 77 1022.4
20260903160405 73 87 6.0 12.0 0.00 0.63 0.35 77 1022.4
20260903155905 73 108 2.0 8.0 0.00 0.63 0.35 76 1022.4
20260903155405 73 78 4.0 13.0 0.00 0.63 0.35 76 1022.4
20260903154905 73 94 6.0 13.0 0.00 0.63 0.35 75 1022.3
20260903154404 73 77 6.0 14.0 0.00 0.63 0.35 75 1022.3
20260903153905 73 91 4.0 14.0 0.00 0.63 0.35 76 1022.3
20260903153405 73 89 6.0 16.0 0.00 0.63 0.35 77 1022.2
20260903152905 73 83 5.0 12.0 0.00 0.63 0.35 76 1022.1
20260903151905 72 79 7.0 12.0 0.00 0.64 0.35 79 1022.1
20260903150906 72 100 4.0 9.0 0.00 0.64 0.35 79 1022.0
20260903150405 73 98 5.0 12.0 0.00 0.64 0.35 78 1021.9
20260903145907 73 85 4.0 13.0 0.00 0.64 0.35 78 1021.9
20260903144905 73 87 6.0 13.0 0.00 0.64 0.35 78 1021.9
20260903144405 73 72 5.0 13.0 0.00 0.64 0.35 77 1021.9
20260903143905 73 89 5.0 10.0 0.00 0.64 0.35 77 1021.9
20260903143405 73 85 5.0 12.0 0.00 0.64 0.35 77 1021.8
20260903142905 73 91 6.0 12.0 0.00 0.64 0.35 77 1021.8
20260903142405 73 91 6.0 12.0 0.00 0.64 0.35 77 1021.8
20260903141905 73 91 5.0 13.0 0.00 0.64 0.35 77 1021.8